• In Portugal
  • List of Countries
  • For 7 days
  • Water Temperature
  • Satellite Maps
  • Weather Map
  • Weather Widgets
  • user-avatar
    Login

    Hourly Weather Córdoba

    Today, 15 July, Sunday

    Time Temperature Precipitation Wind Pressure Humidity
    00:00 +14°C° 0 mm 3 mps 720 mmHg 47%
    01:00 +14°C° 0 mm 4 mps 720 mmHg 49%
    02:00 +14°C° 0 mm 4 mps 720 mmHg 49%
    03:00 +13°C° 0 mm 5 mps 720 mmHg 53%
    04:00 +13°C° 0 mm 5 mps 721 mmHg 56%
    05:00 +11°C° 0 mm 6 mps 721 mmHg 60%
    06:00 +11°C° 0 mm 6 mps 722 mmHg 61%
    07:00 +11°C° 0 mm 6 mps 723 mmHg 61%
    08:00 +11°C° 0 mm 6 mps 723 mmHg 58%
    09:00 +13°C° 0 mm 6 mps 724 mmHg 51%
    10:00 +14°C° 0 mm 6 mps 724 mmHg 43%
    11:00 +16°C° 0 mm 6 mps 725 mmHg 36%
    12:00 +16°C° 0 mm 5 mps 725 mmHg 35%
    13:00 +17°C° 0 mm 5 mps 725 mmHg 33%
    14:00 +17°C° 0 mm 5 mps 725 mmHg 31%
    15:00 +17°C° 0 mm 4 mps 724 mmHg 33%
    16:00 +15°C° 0 mm 4 mps 724 mmHg 35%
    17:00 +16°C° 0 mm 3 mps 724 mmHg 36%
    18:00 +13°C° 0 mm 3 mps 725 mmHg 39%
    19:00 +12°C° 0 mm 3 mps 725 mmHg 41%
    20:00 +12°C° 0 mm 2 mps 726 mmHg 43%
    21:00 +10°C° 0 mm 2 mps 726 mmHg 44%
    22:00 +10°C° 0 mm 2 mps 727 mmHg 46%
    23:00 +9°C° 0 mm 2 mps 727 mmHg 47%

    Tomorrow, 16 July, Monday

    Time Temperature Precipitation Wind Pressure Humidity
    00:00 +9°C° 0 mm 2 mps 727 mmHg 48%
    01:00 +9°C° 0 mm 2 mps 727 mmHg 49%
    02:00 +8°C° 0 mm 2 mps 727 mmHg 51%
    03:00 +8°C° 0 mm 2 mps 727 mmHg 52%
    04:00 +8°C° 0 mm 2 mps 727 mmHg 54%
    05:00 +7°C° 0 mm 2 mps 727 mmHg 56%
    06:00 +7°C° 0 mm 2 mps 727 mmHg 56%
    07:00 +7°C° 0 mm 2 mps 728 mmHg 57%
    08:00 +8°C° 0 mm 2 mps 728 mmHg 57%
    09:00 +9°C° 0 mm 2 mps 728 mmHg 53%
    10:00 +12°C° 0 mm 2 mps 728 mmHg 49%
    11:00 +14°C° 0 mm 2 mps 728 mmHg 44%
    12:00 +15°C° 0 mm 2 mps 728 mmHg 43%
    13:00 +16°C° 0 mm 2 mps 727 mmHg 41%
    14:00 +17°C° 0 mm 3 mps 726 mmHg 40%
    15:00 +16°C° 0 mm 3 mps 726 mmHg 43%
    16:00 +15°C° 0 mm 2 mps 726 mmHg 47%
    17:00 +15°C° 0 mm 2 mps 726 mmHg 50%
    18:00 +14°C° 0 mm 2 mps 726 mmHg 55%
    19:00 +13°C° 0 mm 2 mps 726 mmHg 59%
    20:00 +12°C° 0 mm 2 mps 727 mmHg 63%
    21:00 +12°C° 0 mm 2 mps 727 mmHg 66%
    22:00 +12°C° 0 mm 2 mps 727 mmHg 69%
    23:00 +10°C° 0 mm 2 mps 727 mmHg 72%

    Day after tomorrow, 17 July, Tuesday

    Time Temperature Precipitation Wind Pressure Humidity
    00:00 +11°C° 0 mm 1 mps 727 mmHg 74%
    01:00 +11°C° 0 mm 1 mps 726 mmHg 76%
    02:00 +11°C° 0 mm 1 mps 726 mmHg 79%
    03:00 +11°C° 0 mm 1 mps 725 mmHg 80%
    04:00 +11°C° 0 mm 1 mps 725 mmHg 82%
    05:00 +11°C° 0 mm 1 mps 724 mmHg 83%
    06:00 +11°C° 0.1 mm 1 mps 724 mmHg 84%
    07:00 +11°C° 0.1 mm 1 mps 725 mmHg 85%
    08:00 +11°C° 0.1 mm 1 mps 725 mmHg 87%
    09:00 +11°C° 0.1 mm 1 mps 725 mmHg 84%
    10:00 +12°C° 0.1 mm 2 mps 725 mmHg 82%
    11:00 +13°C° 0.1 mm 2 mps 724 mmHg 80%
    12:00 +13°C° 0 mm 2 mps 724 mmHg 79%
    13:00 +14°C° 0 mm 2 mps 723 mmHg 77%
    14:00 +14°C° 0 mm 2 mps 722 mmHg 76%
    15:00 +14°C° 0 mm 2 mps 722 mmHg 79%
    16:00 +14°C° 0 mm 2 mps 722 mmHg 81%
    17:00 +13°C° 0 mm 2 mps 721 mmHg 84%
    18:00 +13°C° 0 mm 1 mps 722 mmHg 86%
    19:00 +12°C° 0 mm 1 mps 722 mmHg 89%
    20:00 +12°C° 0 mm 1 mps 722 mmHg 92%
    21:00 +12°C° 0 mm 1 mps 722 mmHg 92%
    22:00 +12°C° 0 mm 1 mps 723 mmHg 92%
    23:00 +12°C° 0 mm 1 mps 723 mmHg 92%

    18 July, Wednesday

    Time Temperature Precipitation Wind Pressure Humidity
    00:00 +12°C° 0 mm 1 mps 722 mmHg 92%
    01:00 +11°C° 0 mm 1 mps 722 mmHg 93%
    02:00 +11°C° 0 mm 1 mps 722 mmHg 93%
    03:00 +11°C° 0 mm 1 mps 721 mmHg 93%
    04:00 +11°C° 0 mm 1 mps 721 mmHg 93%
    05:00 +11°C° 0 mm 1 mps 721 mmHg 93%
    06:00 +11°C° 0 mm 1 mps 721 mmHg 93%
    07:00 +11°C° 0 mm 1 mps 721 mmHg 93%
    08:00 +11°C° 0 mm 1 mps 722 mmHg 92%
    09:00 +12°C° 0 mm 2 mps 722 mmHg 89%
    10:00 +13°C° 0 mm 2 mps 722 mmHg 86%
    11:00 +14°C° 0 mm 2 mps 722 mmHg 83%
    12:00 +14°C° 0 mm 2 mps 722 mmHg 81%
    13:00 +13°C° 0 mm 3 mps 721 mmHg 80%
    14:00 +13°C° 0 mm 3 mps 721 mmHg 78%
    15:00 +13°C° 0 mm 3 mps 721 mmHg 79%
    16:00 +13°C° 0 mm 4 mps 721 mmHg 79%
    17:00 +13°C° 0 mm 4 mps 721 mmHg 79%
    18:00 +12°C° 0 mm 4 mps 722 mmHg 79%
    19:00 +11°C° 0 mm 4 mps 723 mmHg 79%
    20:00 +10°C° 0 mm 4 mps 723 mmHg 80%
    21:00 +10°C° 0 mm 4 mps 724 mmHg 79%
    22:00 +8°C° 0 mm 4 mps 724 mmHg 77%
    23:00 +8°C° 0 mm 4 mps 724 mmHg 76%

    19 July, Thursday

    Time Temperature Precipitation Wind Pressure Humidity
    00:00 +8°C° 0 mm 4 mps 724 mmHg 76%
    01:00 +7°C° 0 mm 4 mps 724 mmHg 75%
    02:00 +7°C° 0 mm 4 mps 724 mmHg 75%
    03:00 +7°C° 0 mm 4 mps 724 mmHg 73%
    04:00 +7°C° 0 mm 5 mps 724 mmHg 72%
    05:00 +7°C° 0 mm 5 mps 724 mmHg 70%
    06:00 +7°C° 0 mm 5 mps 725 mmHg 69%
    07:00 +7°C° 0 mm 5 mps 725 mmHg 69%
    08:00 +7°C° 0 mm 5 mps 726 mmHg 68%
    09:00 +8°C° 0 mm 6 mps 726 mmHg 62%
    10:00 +10°C° 0 mm 7 mps 726 mmHg 55%
    11:00 +11°C° 0 mm 8 mps 727 mmHg 49%
    12:00 +11°C° 0 mm 8 mps 726 mmHg 47%
    13:00 +12°C° 0 mm 8 mps 726 mmHg 46%
    14:00 +12°C° 0 mm 8 mps 726 mmHg 44%
    15:00 +11°C° 0 mm 8 mps 726 mmHg 47%
    16:00 +10°C° 0 mm 7 mps 726 mmHg 51%
    17:00 +9°C° 0 mm 7 mps 726 mmHg 54%
    18:00 +7°C° 0 mm 6 mps 727 mmHg 57%
    19:00 +6°C° 0 mm 5 mps 727 mmHg 61%
    20:00 +5°C° 0 mm 4 mps 728 mmHg 65%
    21:00 +5°C° 0 mm 4 mps 728 mmHg 66%
    22:00 +4°C° 0 mm 4 mps 728 mmHg 68%
    23:00 +4°C° 0 mm 3 mps 728 mmHg 69%

    20 July, Friday

    Time Temperature Precipitation Wind Pressure Humidity
    00:00 +3°C° 0 mm 3 mps 728 mmHg 70%
    01:00 +3°C° 0 mm 3 mps 728 mmHg 71%
    02:00 +3°C° 0 mm 3 mps 728 mmHg 71%
    03:00 +3°C° 0 mm 3 mps 728 mmHg 71%
    04:00 +2°C° 0 mm 3 mps 728 mmHg 70%
    05:00 +3°C° 0 mm 2 mps 729 mmHg 70%
    06:00 +3°C° 0 mm 2 mps 729 mmHg 67%
    07:00 +3°C° 0 mm 2 mps 730 mmHg 64%
    08:00 +4°C° 0 mm 2 mps 730 mmHg 61%
    09:00 +6°C° 0 mm 2 mps 730 mmHg 51%
    10:00 +8°C° 0 mm 2 mps 730 mmHg 42%
    11:00 +12°C° 0 mm 2 mps 730 mmHg 33%
    12:00 +13°C° 0 mm 2 mps 729 mmHg 30%
    13:00 +14°C° 0 mm 2 mps 729 mmHg 27%
    14:00 +15°C° 0 mm 2 mps 728 mmHg 24%
    15:00 +14°C° 0 mm 2 mps 727 mmHg 28%
    16:00 +13°C° 0 mm 2 mps 727 mmHg 31%
    17:00 +13°C° 0 mm 2 mps 727 mmHg 34%
    18:00 +10°C° 0 mm 2 mps 727 mmHg 38%
    19:00 +10°C° 0 mm 1 mps 727 mmHg 41%
    20:00 +8°C° 0 mm 1 mps 728 mmHg 45%
    21:00 +8°C° 0 mm 1 mps 727 mmHg 45%
    22:00 +7°C° 0 mm 1 mps 727 mmHg 46%
    23:00 +7°C° 0 mm 1 mps 727 mmHg 46%
    Show more